DW2363 Weather Reports


time (UTC)temp
C
wind
direction
speed
KPH
gust
KPH
rain 1hr
cm
rain 24hr
cm
rain mn
cm
humidity
%
barometer
mb
20211208121625 10 5 4.8 6.4 0.00 0.05 0.00 82 1014.9
20211208121124 10 278 4.8 6.4 0.00 0.05 0.00 87 1015.0
20211208120624 10 253 6.4 8.0 0.00 0.05 0.00 86 1015.0
20211208120123 11 257 4.8 8.0 0.00 0.05 0.00 86 1015.0
20211208115623 11 232 1.6 8.0 0.00 0.05 0.00 79 1015.1
20211208115123 11 82 3.2 9.7 0.00 0.05 0.00 76 1015.0
20211208114623 11 93 4.8 9.7 0.00 0.05 0.00 78 1014.9
20211208114123 11 68 6.4 9.7 0.00 0.05 0.00 76 1014.8
20211208113624 11 50 4.8 9.7 0.00 0.05 0.00 77 1014.8
20211208113123 11 53 1.6 11.3 0.00 0.05 0.00 79 1014.8
20211208112623 11 44 0.0 11.3 0.00 0.05 0.00 80 1014.8
20211208112123 11 55 3.2 11.3 0.00 0.05 0.00 79 1014.8
20211208111622 11 40 6.4 11.3 0.00 0.05 0.00 78 1014.9
20211208111121 11 58 8.0 14.5 0.00 0.05 0.00 78 1014.8
20211208110621 11 5 9.7 14.5 0.00 0.05 0.00 79 1014.9
20211208110121 11 15 8.0 12.9 0.00 0.05 0.00 80 1014.9
20211208105620 10 11 4.8 12.9 0.00 0.05 0.00 83 1014.9
20211208105122 10 321 1.6 4.8 0.00 0.05 0.00 87 1014.8
20211208104620 10 348 1.6 4.8 0.00 0.05 0.00 88 1014.9
20211208104121 10 287 3.2 6.4 0.00 0.05 0.00 90 1014.9
20211208103620 10 250 4.8 6.4 0.00 0.05 0.00 89 1014.9
20211208103119 11 238 4.8 6.4 0.00 0.05 0.00 88 1015.0
20211208102618 11 244 3.2 6.4 0.00 0.05 0.00 84 1015.0
20211208102119 11 250 4.8 6.4 0.00 0.05 0.00 84 1015.1
20211208101619 11 297 6.4 9.7 0.00 0.05 0.00 83 1015.2
20211208101119 11 324 8.0 9.7 0.00 0.05 0.00 84 1015.2
20211208100617 11 334 6.4 9.7 0.00 0.05 0.00 83 1015.2
20211208100117 11 319 6.4 11.3 0.00 0.05 0.00 83 1015.3
20211208095617 11 350 9.7 16.1 0.00 0.05 0.00 83 1015.3
20211208095117 11 9 12.9 16.1 0.00 0.05 0.00 81 1015.3
20211208094615 11 339 11.3 16.1 0.00 0.05 0.00 80 1015.2
20211208094115 11 344 9.7 14.5 0.00 0.05 0.00 80 1015.2
20211208093615 11 331 11.3 20.9 0.00 0.05 0.00 79 1015.3
20211208093115 11 325 14.5 20.9 0.00 0.05 0.00 79 1015.3
20211208092616 11 344 16.1 20.9 0.00 0.05 0.00 79 1015.2
20211208092116 11 355 17.7 20.9 0.00 0.05 0.00 80 1015.2
20211208091616 11 342 17.7 20.9 0.00 0.05 0.00 81 1015.3
20211208091117 11 349 17.7 20.9 0.00 0.05 0.00 81 1015.3
20211208090616 11 348 17.7 20.9 0.00 0.05 0.00 82 1015.3
20211208090117 11 347 16.1 19.3 0.00 0.05 0.00 83 1015.3
20211208085617 11 348 14.5 17.7 0.00 0.05 0.00 84 1015.4
20211208085116 11 350 12.9 14.5 0.00 0.05 0.00 84 1015.6
20211208084617 11 355 12.9 14.5 0.00 0.05 0.00 84 1015.5
20211208084116 11 350 12.9 14.5 0.00 0.05 0.00 84 1015.6
20211208083617 11 355 9.7 14.5 0.00 0.05 0.00 84 1015.7
20211208083116 11 355 6.4 9.7 0.00 0.05 0.00 84 1015.7
20211208082617 11 19 4.8 6.4 0.00 0.05 0.00 83 1015.7
20211208082116 11 29 3.2 4.8 0.00 0.05 0.00 84 1015.8
20211208081616 11 72 3.2 4.8 0.00 0.05 0.00 84 1015.9
20211208081116 11 30 1.6 4.8 0.00 0.05 0.00 84 1016.0
20211208080616 11 30 3.2 4.8 0.00 0.05 0.00 84 1016.2
20211208080115 11 30 3.2 8.0 0.00 0.05 0.00 84 1016.2
20211208075615 11 30 4.8 8.0 0.00 0.05 0.05 84 1016.0
20211208075115 11 25 6.4 8.0 0.00 0.05 0.05 84 1016.0
20211208074615 11 5 4.8 8.0 0.00 0.05 0.05 84 1016.0
20211208074115 11 5 4.8 6.4 0.00 0.05 0.05 85 1016.0
20211208073616 11 355 4.8 6.4 0.00 0.05 0.05 85 1016.2
20211208073115 11 14 4.8 6.4 0.00 0.05 0.05 85 1016.2
20211208072612 11 19 3.2 8.0 0.00 0.05 0.05 85 1016.2
20211208072113 11 12 4.8 8.0 0.00 0.05 0.05 85 1016.0
20211208071612 11 12 6.4 8.0 0.00 0.05 0.05 85 1016.0
20211208071112 11 5 8.0 9.7 0.00 0.05 0.05 86 1016.0
20211208070612 11 355 8.0 9.7 0.00 0.05 0.05 84 1016.0
20211208070112 11 9 9.7 11.3 0.00 0.05 0.05 84 1016.0
20211208065611 11 5 9.7 11.3 0.00 0.05 0.05 84 1015.9
20211208065112 11 15 8.0 11.3 0.00 0.05 0.05 84 1015.9
20211208064613 11 27 6.4 8.0 0.00 0.05 0.05 84 1015.9
20211208064111 11 47 6.4 8.0 0.00 0.05 0.05 84 1015.9
20211208063609 11 26 8.0 9.7 0.00 0.05 0.05 84 1016.0
20211208063110 11 74 8.0 11.3 0.00 0.05 0.05 83 1015.9
20211208062610 11 92 9.7 11.3 0.00 0.05 0.05 83 1015.8
20211208062110 11 92 9.7 11.3 0.00 0.05 0.05 83 1015.7
20211208061610 11 98 8.0 11.3 0.00 0.05 0.05 83 1015.9
20211208061111 11 100 6.4 11.3 0.00 0.05 0.05 83 1015.8
20211208060610 11 101 6.4 9.7 0.00 0.05 0.05 83 1015.9
20211208060110 11 110 8.0 11.3 0.00 0.05 0.05 82 1015.9
20211208055610 11 106 8.0 11.3 0.00 0.05 0.05 82 1015.9
20211208055110 11 101 8.0 11.3 0.00 0.05 0.05 82 1015.9
20211208054607 11 116 9.7 12.9 0.00 0.05 0.05 82 1015.7
20211208054108 11 98 11.3 14.5 0.00 0.05 0.05 83 1015.6
20211208053608 11 71 12.9 14.5 0.00 0.05 0.05 83 1015.6
20211208053108 11 61 12.9 17.7 0.00 0.05 0.05 83 1015.4
20211208052607 11 61 14.5 17.7 0.00 0.05 0.05 83 1015.3
20211208052107 11 59 14.5 17.7 0.00 0.05 0.05 83 1015.2
20211208051607 11 59 14.5 17.7 0.00 0.05 0.05 83 1015.1
20211208051108 11 61 16.1 17.7 0.00 0.05 0.05 83 1015.0
20211208050607 11 71 16.1 17.7 0.00 0.05 0.05 82 1015.0
20211208050106 11 71 16.1 17.7 0.00 0.05 0.05 82 1015.0
20211208045603 11 84 16.1 17.7 0.00 0.05 0.05 82 1015.0
20211208045104 11 82 16.1 19.3 0.00 0.05 0.05 82 1015.0
20211208044601 11 84 17.7 19.3 0.00 0.05 0.05 81 1014.9
20211208044102 11 84 17.7 20.9 0.00 0.05 0.05 81 1014.9
20211208043601 11 84 17.7 20.9 0.00 0.05 0.05 82 1014.8
20211208043101 11 81 17.7 20.9 0.00 0.05 0.05 82 1014.8
20211208042602 11 88 16.1 19.3 0.00 0.05 0.05 83 1014.8
20211208042102 11 76 16.1 19.3 0.00 0.05 0.05 83 1014.9
20211208041600 11 83 16.1 19.3 0.00 0.05 0.05 83 1014.9
20211208041100 11 82 16.1 19.3 0.00 0.05 0.05 83 1014.8
20211208040600 11 83 16.1 19.3 0.00 0.05 0.05 84 1014.8
20211208040100 11 85 16.1 19.3 0.00 0.05 0.05 84 1014.8
20211208035600 11 101 17.7 20.9 0.00 0.05 0.05 84 1014.8
20211208035059 11 84 17.7 20.9 0.00 0.05 0.05 85 1014.8
20211208034600 11 92 17.7 20.9 0.00 0.05 0.05 85 1014.8
20211208034059 11 94 17.7 20.9 0.00 0.05 0.05 85 1014.8
20211208033600 11 89 17.7 20.9 0.00 0.05 0.05 86 1014.6
20211208033100 11 86 17.7 22.5 0.00 0.05 0.05 87 1014.8
20211208032600 11 95 17.7 22.5 0.00 0.05 0.05 87 1014.6
20211208032100 11 92 17.7 22.5 0.00 0.05 0.05 88 1014.6
20211208031559 11 96 17.7 22.5 0.00 0.05 0.05 89 1014.6
20211208031059 10 90 19.3 22.5 0.00 0.05 0.05 90 1014.5
20211208030600 10 87 17.7 22.5 0.00 0.05 0.05 92 1014.5
20211208030100 10 88 16.1 19.3 0.00 0.05 0.05 94 1014.5
20211208025559 10 76 16.1 19.3 0.00 0.05 0.05 95 1014.4
20211208025059 10 89 14.5 17.7 0.00 0.05 0.05 95 1014.4
20211208024559 10 98 12.9 17.7 0.00 0.05 0.05 95 1014.3
20211208024059 10 105 12.9 16.1 0.00 0.05 0.05 95 1014.4
20211208023557 10 107 12.9 16.1 0.00 0.05 0.05 94 1014.6
20211208023057 10 112 12.9 16.1 0.00 0.05 0.05 94 1014.6
20211208022556 10 107 14.5 16.1 0.00 0.05 0.05 94 1014.6
20211208022055 10 109 14.5 17.7 0.00 0.05 0.05 94 1014.6
20211208021555 10 107 16.1 17.7 0.00 0.05 0.05 93 1014.4
20211208021055 10 103 16.1 20.9 0.00 0.05 0.05 93 1014.4
20211208020555 10 91 17.7 20.9 0.00 0.05 0.05 93 1014.2
20211208020055 10 92 16.1 19.3 0.00 0.05 0.05 93 1014.2
20211208015555 11 85 16.1 17.7 0.00 0.05 0.05 92 1014.2
20211208015055 11 102 16.1 17.7 0.00 0.05 0.05 92 1014.2
20211208014555 11 101 14.5 17.7 0.00 0.05 0.05 91 1014.2
20211208014055 11 101 12.9 17.7 0.00 0.05 0.05 91 1014.2
20211208013556 11 106 12.9 16.1 0.00 0.05 0.05 91 1014.2
20211208013055 11 99 12.9 16.1 0.00 0.05 0.05 90 1014.3
20211208012555 11 108 12.9 14.5 0.00 0.05 0.05 90 1014.3
20211208012056 11 94 11.3 14.5 0.00 0.05 0.05 90 1014.3
20211208011555 11 98 12.9 14.5 0.00 0.05 0.05 90 1014.3
20211208011053 11 101 12.9 14.5 0.00 0.05 0.05 90 1014.3
20211208010553 11 101 12.9 14.5 0.00 0.05 0.05 89 1014.3
20211208010054 11 93 12.9 14.5 0.00 0.05 0.05 89 1014.2
20211208005552 11 95 11.3 14.5 0.00 0.05 0.05 89 1014.2
20211208005051 11 96 11.3 14.5 0.00 0.05 0.05 89 1014.1
20211208004551 11 92 11.3 14.5 0.00 0.05 0.05 89 1014.2
20211208004051 11 100 9.7 14.5 0.00 0.05 0.05 89 1014.2
20211208003551 11 100 9.7 11.3 0.00 0.05 0.05 89 1014.1
20211208003051 11 98 9.7 11.3 0.00 0.05 0.05 90 1014.2
20211208002551 11 88 9.7 14.5 0.00 0.05 0.05 90 1014.1
20211208002051 11 92 8.0 14.5 0.00 0.05 0.05 90 1014.0
20211208001551 11 90 3.2 9.7 0.00 0.05 0.05 91 1014.0
20211208001051 11 113 3.2 6.4 0.00 0.05 0.05 91 1014.0
20211208000551 11 138 3.2 6.4 0.00 0.05 0.05 91 1013.9
20211208000049 11 136 3.2 6.4 0.00 0.05 0.05 91 1013.9
20211207235549 11 118 4.8 6.4 0.00 0.05 0.05 91 1013.9
20211207235049 11 126 4.8 6.4 0.00 0.05 0.05 91 1014.0
20211207234549 11 134 4.8 11.3 0.00 0.05 0.05 90 1014.0
20211207234049 11 101 6.4 11.3 0.00 0.05 0.05 90 1013.9
20211207233549 11 104 4.8 9.7 0.00 0.05 0.05 90 1013.9
20211207233047 11 101 3.2 6.4 0.00 0.05 0.05 91 1013.9
20211207232547 11 73 4.8 8.0 0.00 0.05 0.05 91 1013.8
20211207232047 11 12 6.4 9.7 0.00 0.05 0.05 92 1013.7
20211207231545 11 38 6.4 9.7 0.00 0.05 0.05 94 1013.7
20211207231045 11 59 6.4 9.7 0.00 0.05 0.05 95 1013.6
20211207230545 11 43 4.8 9.7 0.00 0.05 0.05 96 1013.7
20211207230045 11 88 3.2 9.7 0.00 0.05 0.05 97 1013.7
20211207225545 11 74 3.2 8.0 0.00 0.05 0.05 97 1013.8
20211207225045 11 142 3.2 8.0 0.00 0.05 0.05 98 1013.8
20211207224545 11 47 4.8 11.3 0.00 0.05 0.05 97 1013.7
20211207224045 11 115 4.8 11.3 0.00 0.05 0.05 98 1013.7
20211207223545 11 162 4.8 11.3 0.00 0.05 0.05 98 1013.7
20211207223045 11 153 4.8 11.3 0.00 0.05 0.05 98 1013.7
20211207222543 11 144 4.8 11.3 0.00 0.05 0.05 98 1013.7
20211207222042 11 185 4.8 11.3 0.00 0.05 0.05 98 1013.7
20211207221541 11 194 4.8 9.7 0.00 0.05 0.05 98 1013.7
20211207221041 11 170 4.8 9.7 0.00 0.05 0.05 98 1013.6
20211207220541 11 156 4.8 9.7 0.00 0.05 0.05 98 1013.6
20211207220039 11 163 3.2 9.7 0.00 0.05 0.05 98 1013.6
20211207215539 11 214 3.2 6.4 0.00 0.05 0.05 98 1013.6
20211207215036 11 240 3.2 4.8 0.00 0.05 0.05 98 1013.7
20211207214536 11 218 3.2 6.4 0.00 0.05 0.05 98 1013.7
20211207214037 10 183 3.2 6.4 0.00 0.05 0.05 98 1013.6
20211207213535 10 169 1.6 4.8 0.00 0.05 0.05 98 1013.6
20211207213035 10 211 1.6 4.8 0.00 0.05 0.05 98 1013.7
20211207212536 10 252 1.6 4.8 0.00 0.05 0.05 98 1013.6
20211207212035 10 170 1.6 8.0 0.00 0.05 0.05 98 1013.7
20211207211535 10 160 4.8 12.9 0.00 0.05 0.05 98 1013.7
20211207211035 10 160 6.4 12.9 0.00 0.05 0.05 98 1013.7
20211207210535 10 155 6.4 12.9 0.00 0.05 0.05 98 1013.7
20211207210035 10 152 6.4 12.9 0.00 0.05 0.05 98 1013.8
20211207205535 10 132 4.8 9.7 0.00 0.05 0.05 98 1013.8
20211207205035 10 154 3.2 6.4 0.00 0.05 0.05 98 1013.7
20211207204535 10 215 4.8 9.7 0.00 0.05 0.05 98 1013.7
20211207204033 10 219 4.8 9.7 0.00 0.05 0.05 98 1013.8
20211207203532 10 215 4.8 9.7 0.00 0.05 0.05 98 1013.9
20211207203033 10 194 4.8 12.9 0.00 0.05 0.05 98 1013.8
20211207202532 10 209 4.8 12.9 0.00 0.05 0.05 98 1013.9
20211207202032 10 167 6.4 12.9 0.00 0.05 0.05 98 1013.9
20211207201533 10 158 6.4 12.9 0.00 0.05 0.05 98 1014.0
20211207201032 10 147 4.8 11.3 0.00 0.05 0.05 98 1014.1
20211207200533 10 80 4.8 12.9 0.00 0.05 0.05 98 1014.1
20211207200032 10 117 3.2 12.9 0.00 0.05 0.05 98 1014.1
20211207195532 10 193 3.2 9.7 0.00 0.05 0.05 98 1014.1
20211207195030 10 131 3.2 8.0 0.00 0.05 0.05 98 1014.1
20211207194530 10 150 3.2 8.0 0.00 0.05 0.05 98 1014.1
20211207194030 10 154 4.8 8.0 0.00 0.05 0.05 98 1014.2
20211207193530 10 143 3.2 8.0 0.00 0.05 0.05 98 1014.2
20211207193030 10 141 3.2 8.0 0.00 0.05 0.05 98 1014.4
20211207192530 10 77 1.6 8.0 0.00 0.05 0.05 98 1014.4
20211207192031 10 329 3.2 8.0 0.00 0.05 0.05 98 1014.6
20211207191528 10 38 4.8 8.0 0.00 0.05 0.05 98 1014.5
20211207191026 10 0 4.8 9.7 0.00 0.05 0.05 98 1014.5
20211207190526 10 50 4.8 9.7 0.00 0.05 0.05 98 1014.6
20211207190026 10 91 3.2 9.7 0.00 0.05 0.05 98 1014.6
20211207185525 10 125 3.2 6.4 0.00 0.05 0.05 98 1014.8
20211207185026 10 84 3.2 6.4 0.00 0.05 0.05 98 1014.8
20211207184526 10 36 4.8 8.0 0.00 0.05 0.05 98 1014.8
20211207184026 10 9 6.4 9.7 0.00 0.05 0.05 98 1014.6
20211207183526 10 43 6.4 9.7 0.00 0.05 0.05 98 1014.8
20211207183024 10 0 6.4 9.7 0.00 0.05 0.05 98 1014.6
20211207182524 10 355 4.8 9.7 0.00 0.05 0.05 98 1014.5
20211207182024 10 41 4.8 6.4 0.00 0.05 0.05 98 1014.6
20211207181524 10 44 3.2 12.9 0.00 0.05 0.05 98 1014.6
20211207181024 10 9 3.2 12.9 0.00 0.05 0.05 98 1014.8
20211207180522 10 338 6.4 12.9 0.00 0.05 0.05 98 1014.9
20211207180022 10 59 6.4 12.9 0.00 0.05 0.05 98 1014.8
20211207175522 10 51 8.0 16.1 0.00 0.05 0.05 98 1014.6
20211207175023 10 84 9.7 16.1 0.00 0.05 0.05 98 1014.4
20211207174522 10 49 11.3 14.5 0.00 0.05 0.05 98 1014.3
20211207174022 10 96 9.7 14.5 0.00 0.05 0.05 98 1014.4
20211207173521 10 93 8.0 12.9 0.00 0.05 0.05 98 1014.3
20211207173022 10 86 9.7 12.9 0.00 0.05 0.05 98 1014.3
20211207172520 10 90 9.7 12.9 0.00 0.05 0.05 98 1014.4
20211207172020 10 84 9.7 14.5 0.00 0.05 0.05 98 1014.3
20211207171520 10 110 9.7 16.1 0.00 0.05 0.05 98 1014.3
20211207171020 10 99 11.3 16.1 0.00 0.05 0.05 98 1014.3
20211207170520 10 94 11.3 16.1 0.00 0.05 0.05 98 1014.2
20211207170020 10 106 11.3 19.3 0.00 0.05 0.05 98 1014.4
20211207165520 10 94 11.3 19.3 0.00 0.05 0.05 98 1014.1
20211207165020 10 67 11.3 19.3 0.00 0.05 0.05 98 1014.2
20211207164520 10 98 14.5 19.3 0.00 0.05 0.05 98 1013.9
20211207164020 10 100 12.9 19.3 0.00 0.05 0.05 98 1013.9
20211207163518 10 115 11.3 16.1 0.00 0.05 0.05 98 1014.0
20211207163018 10 102 12.9 17.7 0.00 0.05 0.05 98 1014.0
20211207162518 10 81 12.9 17.7 0.00 0.05 0.05 98 1014.0
20211207162018 10 78 9.7 16.1 0.00 0.05 0.05 98 1014.0
20211207161518 10 72 8.0 12.9 0.00 0.05 0.05 98 1014.1
20211207161018 10 98 6.4 11.3 0.00 0.05 0.05 98 1014.4
20211207160518 10 109 8.0 12.9 0.00 0.05 0.05 98 1014.2
20211207160018 10 85 11.3 14.5 0.00 0.05 0.05 98 1014.1
20211207155516 10 94 8.0 16.1 0.00 0.05 0.05 98 1013.9
20211207155015 10 98 8.0 16.1 0.00 0.05 0.05 98 1013.9
20211207154515 10 95 12.9 19.3 0.00 0.05 0.05 98 1013.9
20211207154015 10 109 11.3 19.3 0.00 0.05 0.05 98 1013.8
20211207153515 10 115 12.9 17.7 0.00 0.05 0.05 98 1013.9
20211207153015 10 92 14.5 19.3 0.00 0.05 0.05 98 1013.7
20211207152516 10 119 12.9 19.3 0.00 0.05 0.05 98 1013.7
20211207152015 10 117 12.9 17.7 0.00 0.05 0.05 98 1013.7
20211207151515 10 109 14.5 17.7 0.00 0.05 0.05 98 1013.8
20211207151015 10 119 12.9 16.1 0.00 0.05 0.05 97 1013.9
20211207150512 10 91 12.9 16.1 0.00 0.05 0.05 97 1013.8
20211207150011 10 91 11.3 16.1 0.00 0.05 0.05 97 1013.7
20211207145512 10 101 11.3 16.1 0.00 0.05 0.05 97 1013.5
20211207145012 10 95 11.3 16.1 0.00 0.05 0.05 97 1013.7
20211207144512 10 99 12.9 20.9 0.03 0.05 0.05 97 1013.6
20211207144011 10 67 14.5 20.9 0.03 0.05 0.05 97 1013.6
20211207143512 9 88 16.1 20.9 0.03 0.05 0.05 97 1013.7
20211207143011 9 92 14.5 20.9 0.03 0.05 0.05 97 1013.6
20211207142511 9 82 11.3 17.7 0.03 0.05 0.05 97 1013.6
20211207142011 9 35 12.9 16.1 0.03 0.05 0.05 97 1013.6
20211207141512 9 87 12.9 16.1 0.03 0.05 0.05 97 1013.6
20211207141011 9 97 14.5 19.3 0.03 0.05 0.05 97 1013.6
20211207140512 10 105 14.5 19.3 0.03 0.05 0.05 97 1013.5
20211207140012 10 103 14.5 19.3 0.03 0.05 0.05 97 1013.4
20211207135512 9 94 14.5 19.3 0.03 0.05 0.05 97 1013.4
20211207135011 9 86 11.3 17.7 0.03 0.05 0.05 97 1013.5
20211207134511 9 70 11.3 16.1 0.00 0.03 0.03 97 1013.5
20211207134011 9 61 11.3 16.1 0.00 0.03 0.03 97 1013.5
20211207133511 9 61 9.7 17.7 0.03 0.03 0.03 97 1013.5
20211207133012 9 44 11.3 17.7 0.03 0.03 0.03 97 1013.6
20211207132511 9 24 11.3 17.7 0.03 0.03 0.03 97 1013.6
20211207132011 9 42 9.7 17.7 0.03 0.03 0.03 97 1013.7
20211207131511 9 28 9.7 16.1 0.03 0.03 0.03 97 1013.7
20211207131011 9 45 9.7 16.1 0.03 0.03 0.03 97 1013.7
20211207130511 9 50 9.7 12.9 0.03 0.03 0.03 97 1013.7
20211207130011 9 40 8.0 16.1 0.03 0.03 0.03 97 1013.6
20211207125511 9 46 8.0 16.1 0.03 0.03 0.03 97 1013.5
20211207125012 9 36 8.0 12.9 0.03 0.03 0.03 97 1013.2
20211207124509 9 34 6.4 8.0 0.03 0.03 0.03 97 1013.4
20211207124008 9 331 4.8 8.0 0.03 0.03 0.03 97 1013.7
20211207123507 9 21 4.8 11.3 0.00 0.00 0.00 97 1013.5
20211207123009 9 41 6.4 11.3 0.00 0.00 0.00 97 1013.5
20211207122505 9 51 6.4 11.3 0.00 0.00 0.00 97 1013.2
20211207122007 9 52 6.4 11.3 0.00 0.00 0.00 97 1013.4